铱星星座 120星 (IRIDIUM 120)

导读

IRIDIUM 120(铱星120)是美国于2017年6月25日发射的低轨通信卫星,隶属于第二代铱星卫星星座,承担全球移动通信与卫星电话服务任务。该卫星用于接替老旧一代铱星卫星,填补星座覆盖缺口,为全球用户提供不间断的语音、数据通信服务,助力偏远地区、海事与航空领域的互联互通,是美国铱星系统组网扩建的重要环节。

基本信息
目录编号:
42805
目录名称:
IRIDIUM 120
国际标识:
2017-039C
轨道中心:
EARTH
卫星名称:
铱星星座 120星
卫星全名:
铱星星座 120星 (IRIDIUM 120)
卫星状态:
在轨 (已飞行3274 天)
发射日期:
2017-06-25 UTC
国别 :
美国 (US)
星等 :
--
轨道信息
数据来源 国际轨道数据 AOE轨道数据
星历时间 2026-06-12T13:03:23+0800
16小时前
查看轨道信息
2026-06-11T17:00:00+0800
1天前
查看轨道信息
半长轴 7155.815km 7155.82km
偏心率 0.0002001 0.0001971
轨道倾角 86.395° 86.397°
近地点辐角 93.992° 97.766°
升交点赤经 324.043° 324.393°
平近点角 266.151° 270.354°
近地点 776.246km 776.272km
远地点 779.11km 779.094km
周期 100.403分钟 100.403分钟
每日圈数 14.342146 14.342131
详细信息
平衡模式:
三轴稳定
覆盖范围:
全球
运营商:
铱星通信公司
运营商所在国:
美国
制造商(研发单位):
阿莱尼亚宇航公司
制造商所在国:
意大利
使用方式:
暂无
卫星简介
铱星(Iridium)是由共66个运作中的通信卫星组成的卫星通信系统。这个系统原本规划77个通信卫星,所以用原子序数为77的铱元素来命名。铱卫星允许人们使用手持型电子设备进行全球性的语音及数据通讯。该卫星仍在工作。
2D轨道图
3D轨道图
轨道高度分析图
轨道倾角分析图
轨道综合分析图
查看轨道综合分析图